User: anonymous   Login
Location: Ostrava
(49.8330°N, 18.2830°E)
Time: 07:22:53
(UTC+01:00)
Language:

Cosmos 1263 Rocket - Orbit

View from above orbital plane
View from above orbital plane
View from above satellite
View from above satellite

Ground track
Ground track

The orbit data is extracted from the following two-line orbital elements,

1 12389U 81033B   15029.18355854  .00073004  21780-6  64540-3 0  2380
2 12389 082.8642 246.5114 0141767 011.4203 123.1551 15.56444445744561
Epoch (UTC): 29 January 2015 04:24:19
Eccentricity: 0.0141767
inclination: 82.8642°
perigee height: 302 km
apogee height: 494 km
right ascension of ascending node: 246.5114°
argument of perigee: 11.4203°
revolutions per day: 15.56444445
mean anomaly at epoch: 123.1551°
orbit number at epoch: 74456

The dashed part of the orbit path shows where the satellite is in the earth's shadow,  

DLR